SCOUT A DEB, 2778

Orbit data source: Space-Track

SCOUT A DEB, 2778 is space debris in LEO originally from a launch on Fri, 14 Apr 1967 UTC launched from the Air Force Western Test Range (AFWTR). Debris objects in space refer to the collection of defunct objects orbiting the Earth. Examples of debris include non-operational satellites, rocket bodies, and fragments generated from explosions, collisions, or faulty payload assembly.

Loading next visibility...
Identifier
2778, 1967-034D
Orbit
LEO
Country
Flag of USUS
Related business
Manufacturer
Unknown
Mission
Spacecraft
Bus & Motor
Unknown
Mass
Unknown
Launch date (UTC)
1967-04-14 (59 years ago)
Launch vehicle
Unknown
Launch site
Air Force Western Test Range (AFWTR)
Object type
Payload
Rocket body
Debris
Shape & HBR
Unknown shape, 0.1 m
Radar Cross Section
Small (<0.1 m²)

Expand to show TLE details & history
Last TLE update: 12 hours ago

TLE from 12 hours ago
0 SCOUT A DEB
1  2778U 67034D   26127.49371874  .00000139  00000-0  24296-3 0  9994
2  2778  89.8549  38.1244 0124496 109.0225 314.0466 13.35271000867722
Epoch: 2026-05-07T11:50Z
TLE epoch observation values (Epoch: 2026-05-07T11:50:57.299Z)
Latitude
62.11931°
Longitude
-4.68055°
Altitude
1,073.308 km
Speed
7.353 km/s
True Right ascension
02h 33m 35s
True Declination
61° 58' 59"
Sunlit
Object was in daylight at epoch
Visualization orbit readout
Latitude
Unknown
Longitude
Unknown
Altitude
Unknown
Speed
Unknown
Apparent Right ascension
Unknown
Apparent Declination
Unknown
Sunlit
N/A
Visualization observer readout
Local Sidereal Time
08:11:28
Azimuth
Unknown
Elevation
Unknown
Doppler factor
Unknown
Orbital elements
Apogee altitude
1,217.417 km
Perigee altitude
1,030.619 km
Semi-major axis
7,502.155 km
Eccentricity
0.01245
Inclination
89.8549°
RAAN
38.1244°
Arg. of periapsis
109.0225°
True anomaly
313.01003°
Mean anomaly
314.0466°
Eccentric anomaly
313.52944°
Mean motion
3.34014 °/min
Orbital period
107.78 mins
BSTAR
0.00024296
Loading maneuver chart data...
Computing Atmospheric mass density...
Loading historical data...
Loading historical data...
Loading historical data...
Loading historical data...
Loading historical data...
Loading historical data...
Loading historical data...

Documentation

Showing up to 5 results
|